GFSCGP_500_rhum_117.txt.gz
RH
23 14 10 10 9 8 8 7 6 6 6 6 6 6 6 6 6 5 5 6 9 12 19 28 33 32 31 25 18 14 9 7 8 8 7 8 11 15 15 16 13 12 11 8
30 16 11 10 9 9 8 8 8 7 7 7 7 8 8 9 10 11 14 18 22 31 35 35 31 25 18 11 7 7 12 15 12 15 16 15 16 19 22 24 22 20 15 13
36 24 16 12 12 11 10 10 10 11 12 13 14 16 16 18 20 24 32 38 37 37 33 24 15 8 8 11 18 21 18 18 21 22 20 24 24 23 15 10 12 16 17 17
61 34 25 20 17 16 16 16 17 18 19 20 22 23 26 30 39 42 37 37 36 27 14 8 14 20 19 21 24 21 23 25 26 24 27 34 27 28 16 16 27 48 68 73
77 61 46 32 24 22 21 21 21 23 25 28 32 39 40 44 38 37 36 32 17 8 13 18 19 22 21 20 24 34 37 29 31 32 32 37 34 34 31 30 26 43 50 47
93 84 67 55 44 35 31 31 34 38 43 45 44 44 40 40 37 31 17 10 11 24 23 22 25 26 29 31 34 36 36 34 34 27 37 39 38 42 41 48 40 36 47 46
81 76 81 73 63 58 56 56 53 50 49 45 46 36 34 27 16 10 10 24 36 33 29 30 33 33 32 34 28 20 25 20 11 28 14 8 8 12 26 35 50 52 44 46
80 78 71 65 64 60 57 56 52 48 42 39 34 28 15 10 11 13 27 40 37 33 34 28 28 31 30 29 23 7 6 7 7 7 8 8 9 10 10 12 12 28 60 68
79 73 70 64 57 52 55 50 46 40 36 26 15 9 10 13 29 38 39 36 28 25 22 13 15 24 30 19 6 5 5 6 7 8 8 10 16 20 22 20 18 16 15 15
67 61 61 58 53 48 41 36 26 13 10 9 10 12 27 35 37 30 27 22 17 11 7 6 6 5 6 6 6 7 8 10 12 14 17 20 23 26 32 41 51 58 58 50
60 53 49 48 35 24 13 10 11 13 12 12 17 24 28 22 13 8 6 5 5 6 6 6 6 7 8 9 10 12 15 17 18 19 21 26 36 49 56 57 50 47 48 47
19 14 10 11 11 12 14 13 12 16 19 22 23 25 12 5 4 5 6 7 9 11 12 13 14 14 15 15 16 17 19 22 26 30 36 41 51 60 56 38 31 27 26 24
18 20 20 24 24 25 22 19 22 21 17 10 6 5 4 6 8 10 10 11 12 13 15 16 17 17 17 17 18 20 22 28 36 40 45 49 45 32 32 24 21 20 20 21
19 15 11 9 7 6 5 5 4 4 4 4 6 8 10 11 13 15 17 20 22 24 25 24 25 29 30 29 26 24 29 42 42 39 26 20 23 22 24 23 23 24 28 30
6 5 5 4 4 4 4 5 7 9 11 12 12 13 14 20 24 24 20 18 17 13 13 14 13 14 16 19 26 30 27 24 24 16 16 21 25 30 30 28 31 34 36 34
5 5 5 5 6 9 10 11 12 16 19 22 24 23 25 25 21 14 12 10 10 11 11 12 12 11 10 9 8 9 12 14 18 20 22 27 34 33 33 34 38 40 44 42
11 11 12 13 13 15 18 22 22 21 17 16 13 13 12 12 10 11 10 11 12 10 11 11 10 10 10 10 12 13 16 18 22 24 28 30 30 31 32 38 42 44 46 46
19 19 19 20 19 19 16 13 11 11 10 11 12 10 10 10 10 10 11 11 13 13 13 12 12 12 12 13 13 13 15 18 20 23 27 28 30 32 39 41 44 50 56 68
26 26 26 23 21 18 15 13 11 11 10 10 11 11 11 11 11 10 10 11 12 13 13 14 15 16 16 17 17 17 18 20 21 22 26 29 32 37 40 45 52 63 79 82
29 29 27 24 23 21 18 16 15 13 14 11 10 10 11 12 12 13 12 11 11 11 12 14 15 14 13 13 15 18 20 20 22 27 30 33 36 39 42 52 75 87 86 77
17 18 20 19 18 18 17 16 15 14 12 13 13 13 13 10 10 11 11 10 10 10 11 11 12 14 15 16 14 14 21 23 24 26 30 32 38 46 57 79 92 91 90 72
13 12 12 13 12 12 11 10 9 8 7 7 8 8 7 7 7 7 7 8 8 10 10 10 10 13 12 14 18 19 17 22 24 26 28 30 52 92 92 95 90 90 90 86
11 10 7 6 8 8 9 12 10 9 10 10 9 9 10 10 10 11 11 10 8 7 8 9 11 13 15 14 17 22 23 23 23 24 29 44 72 94 99 97 91 92 90 92
41 17 14 18 31 41 47 44 40 40 36 34 31 25 18 19 16 18 19 20 19 16 13 9 10 13 14 14 14 17 20 22 28 72 56 55 93 98 98 95 98 96 94 92
54 49 45 43 40 36 36 33 29 28 26 24 22 25 29 32 36 34 37 35 35 31 21 16 11 11 13 13 13 15 19 24 43 79 90 96 98 99 97 98 98 97 94 87
50 50 43 39 39 36 34 30 28 27 26 24 24 24 24 23 24 26 28 28 29 36 40 31 16 13 13 16 19 20 24 27 35 80 97 99 99 97 99 100 98 95 92 87

GFSCGP_500_rhum_120.txt.gz
RH
43 18 13 12 10 8 6 6 7 7 7 7 6 6 6 6 6 6 6 6 5 6 6 8 10 19 29 32 33 29 25 19 13 8 9 9 13 15 19 15 13 11 11 10
40 17 13 11 10 8 7 6 6 6 6 6 6 6 6 6 6 6 6 7 10 12 19 26 31 31 29 27 23 17 10 9 13 14 10 18 18 20 19 17 21 23 21 15
26 17 12 11 10 9 8 7 7 6 6 6 6 6 6 7 9 10 12 16 22 32 34 30 29 27 19 10 8 12 16 16 14 12 17 18 20 23 23 21 25 27 29 16
28 20 13 12 11 9 9 8 8 8 8 8 10 11 13 16 19 23 29 36 37 32 31 28 20 9 11 13 15 13 14 18 21 18 16 20 21 24 24 24 21 21 32 22
45 26 15 12 10 10 10 10 10 10 11 13 15 18 21 26 31 37 39 36 33 31 24 13 10 15 16 13 10 17 21 25 23 23 18 24 18 8 7 9 9 9 16 33
74 36 23 16 14 13 13 14 14 15 17 18 21 28 34 37 38 36 34 32 28 16 10 19 19 22 22 23 22 23 20 20 13 12 17 14 6 7 8 13 16 19 14 16
89 52 32 29 24 21 21 20 22 25 27 36 40 39 39 35 32 31 26 15 9 20 28 29 28 24 25 26 25 24 26 13 6 8 8 6 6 7 12 22 32 38 37 28
84 67 63 57 57 52 46 44 42 47 46 43 41 30 29 25 22 14 10 10 20 33 32 29 21 17 12 14 27 29 7 5 5 5 6 7 8 12 19 25 40 48 54 55
76 68 63 62 58 57 56 55 54 46 38 36 31 28 24 13 8 11 20 28 34 34 25 20 15 11 7 6 8 5 6 6 7 7 9 11 16 19 22 37 47 51 48 31
80 73 65 65 57 55 52 47 42 42 34 27 22 12 9 13 29 36 34 32 26 16 9 5 5 5 5 5 6 7 8 8 9 12 16 18 22 30 38 47 51 51 32 28
74 65 59 50 47 45 43 32 29 23 13 10 9 13 21 26 25 15 7 5 5 5 5 6 8 10 11 12 12 13 13 15 18 20 24 30 36 44 44 34 24 29 26 25
59 50 46 43 36 30 23 18 12 10 12 11 15 26 24 19 6 5 6 6 8 10 11 12 15 18 19 18 17 17 17 19 22 25 35 43 43 33 21 18 21 20 20 21
32 25 24 19 15 12 10 10 10 13 18 21 14 10 5 5 7 8 9 10 12 15 19 19 18 13 16 20 23 26 26 25 26 28 36 36 36 24 19 17 16 21 20 22
18 16 17 18 18 17 15 16 16 11 6 5 4 6 8 9 11 14 18 19 20 16 10 11 11 11 11 12 13 14 23 28 29 28 28 28 25 19 16 18 19 18 24 28
16 14 12 9 7 6 5 4 5 6 8 10 11 13 15 17 19 15 13 12 12 11 10 10 11 11 11 12 12 12 13 12 14 14 14 14 14 15 16 18 22 24 30 36
5 4 4 4 5 6 8 10 11 13 16 19 22 20 17 16 14 13 12 10 11 13 13 12 11 11 12 12 12 12 12 12 12 12 12 13 15 17 19 22 27 30 35 40
10 10 10 10 10 11 14 17 20 21 20 15 14 11 12 12 11 11 10 10 11 11 12 12 13 14 14 15 15 15 15 16 17 17 18 19 20 22 25 28 31 34 38 43
19 19 19 20 19 20 18 15 11 10 10 11 11 11 11 11 10 10 10 12 12 11 11 11 11 12 12 14 15 15 14 14 15 16 18 21 21 22 26 31 33 38 54 75
28 27 26 25 24 19 14 15 14 13 12 11 12 13 13 12 11 11 12 11 11 10 11 10 10 10 10 10 10 12 14 15 15 14 15 21 24 25 30 32 36 54 95 97
20 20 20 19 20 21 19 19 18 18 16 15 15 12 12 12 11 11 12 9 8 8 8 8 8 8 9 9 10 11 12 14 14 15 17 18 21 26 30 45 51 78 97 99
13 13 14 14 15 17 16 16 15 13 12 10 8 8 7 8 8 9 9 10 11 12 13 14 15 14 11 9 10 12 12 14 14 14 20 22 23 26 36 78 92 90 99 100
14 13 10 8 7 7 7 7 9 12 11 12 15 23 25 27 24 18 18 20 19 21 26 30 29 25 20 17 14 10 13 16 18 15 19 24 26 29 53 89 94 100 100 100
22 33 33 27 26 17 24 42 42 41 42 38 36 34 30 27 28 32 32 30 29 28 30 28 27 27 28 30 30 17 13 15 16 15 16 18 26 36 52 76 100 100 99 100
57 58 53 51 53 53 48 44 39 37 35 32 28 26 24 22 24 24 21 21 22 22 23 24 25 25 26 27 32 36 29 16 15 17 19 24 31 35 65 100 100 100 100 100
54 55 52 48 46 44 42 39 38 37 34 32 31 28 27 26 26 26 27 26 26 25 24 24 26 29 30 30 34 36 38 26 18 19 23 30 34 77 100 100 99 100 100 100
51 52 53 51 46 42 43 47 49 47 43 44 43 37 33 27 23 21 22 21 22 22 20 22 26 28 30 32 38 40 42 27 19 21 25 29 50 96 99 100 99 99 100 100

GFSCGP_500_rhum_123.txt.gz
RH
55 37 30 21 16 15 13 11 13 12 11 12 10 9 7 7 6 6 6 6 6 6 6 6 8 10 19 29 30 29 25 24 19 13 10 10 10 11 16 17 19 16 14 18
40 33 26 19 14 11 10 10 8 8 8 8 8 7 6 6 6 6 6 6 6 8 9 12 18 26 31 29 27 25 16 9 10 11 11 15 14 16 17 18 16 13 16 14
43 36 24 18 14 11 10 8 6 6 6 6 6 6 6 6 6 6 7 9 12 17 23 30 34 29 27 25 15 9 10 10 10 12 20 22 19 17 19 15 11 10 11 17
33 28 19 15 13 11 9 7 6 6 6 6 6 6 6 7 8 10 14 19 26 33 34 30 29 27 22 12 10 11 8 10 15 19 16 15 15 17 11 6 15 22 22 24
45 27 16 14 13 11 10 8 7 7 6 6 7 8 9 12 16 20 25 32 36 35 31 29 25 16 10 13 18 17 18 20 19 19 15 7 13 11 6 7 16 23 31 33
38 22 15 13 12 11 10 9 8 8 8 9 10 12 16 19 24 32 36 35 33 30 27 18 9 12 17 18 16 16 18 21 20 16 6 8 9 6 6 7 15 24 33 35
27 19 15 13 12 12 12 11 10 11 11 14 16 19 25 34 37 35 31 26 23 18 10 8 19 24 21 14 13 11 10 14 13 5 5 5 5 6 8 15 19 22 28 33
45 32 18 14 13 14 13 15 18 20 23 27 33 37 39 34 29 22 18 12 9 8 12 28 22 18 16 14 11 6 8 7 5 6 6 7 7 9 16 17 20 29 29 23
79 52 36 28 21 23 28 36 40 41 45 44 44 40 34 29 23 12 9 12 19 19 26 23 20 15 9 5 5 5 5 5 7 7 8 8 10 15 17 24 31 30 24 18
75 66 56 53 46 42 44 47 48 48 42 38 33 25 20 14 10 14 22 27 27 25 22 13 5 5 6 8 9 10 11 11 12 13 15 18 18 22 27 31 32 25 18 16
72 60 55 51 51 51 52 52 46 41 32 25 20 12 10 10 21 27 23 17 13 7 4 5 8 11 14 18 20 20 20 19 17 17 18 21 24 28 33 32 32 18 13 12
73 67 58 58 55 48 43 38 32 25 18 9 9 14 17 18 19 12 4 4 6 7 9 12 16 18 16 15 15 14 14 17 23 25 26 26 25 24 24 21 21 17 17 14
69 62 56 47 44 34 27 22 19 11 12 15 16 18 13 8 4 5 8 10 12 17 17 12 10 11 12 11 11 12 11 9 8 7 8 9 9 9 8 10 11 14 17 20
35 31 26 23 21 19 13 10 10 14 17 13 7 4 5 6 9 12 16 20 18 11 10 11 10 10 10 11 10 10 10 11 10 10 10 10 10 11 13 14 17 20 23 26
19 18 17 16 15 13 13 13 10 5 4 5 6 10 12 16 19 18 16 13 12 12 12 12 12 12 13 13 13 13 14 14 14 15 15 16 16 17 18 19 20 21 24 28
8 8 7 6 5 4 4 5 8 10 12 13 19 20 18 12 12 11 11 11 11 11 10 10 10 11 11 11 12 12 13 14 15 15 15 15 15 15 16 19 22 23 26 33
9 8 6 6 8 10 11 12 16 19 19 16 12 12 11 11 11 10 11 10 10 11 12 11 11 11 10 10 10 10 10 10 10 11 13 14 15 16 16 16 18 25 27 30
17 18 17 16 17 18 19 18 16 11 12 12 11 11 13 15 15 14 12 12 12 12 12 10 8 8 8 8 8 9 9 10 10 12 13 14 15 16 18 19 20 25 27 30
24 24 24 24 20 19 15 15 15 13 12 12 14 15 15 14 13 9 9 8 8 7 8 9 11 13 15 19 22 22 20 20 15 13 11 12 16 20 17 19 24 25 28 32
18 18 18 20 21 20 16 15 16 16 15 14 13 13 12 8 7 9 9 9 11 11 12 15 19 27 34 31 28 28 26 26 27 28 21 16 14 17 18 18 24 28 30 38
18 17 15 14 14 13 12 11 12 11 10 9 9 9 13 26 35 37 38 38 36 35 34 32 29 26 22 21 23 24 25 26 27 29 30 29 18 16 17 18 21 25 32 42
14 13 13 11 10 11 14 12 11 18 33 45 48 44 39 35 32 30 28 27 26 26 25 20 19 20 21 22 22 24 25 26 28 29 31 35 32 20 18 21 24 32 44 60
21 29 36 33 38 45 48 49 48 46 42 40 38 36 35 33 35 35 30 29 29 26 25 25 26 26 25 22 22 21 23 24 30 32 34 36 39 29 20 26 35 49 62 100
59 53 52 49 45 46 48 47 45 44 41 42 44 45 43 37 40 44 44 36 30 22 19 20 19 18 17 21 21 22 25 29 34 38 40 41 38 28 25 36 45 53 92 100
55 59 59 57 54 51 50 50 50 50 50 51 55 54 56 53 47 44 37 36 39 43 42 36 35 29 16 13 10 11 14 20 33 43 48 46 37 29 40 48 50 66 99 100
59 56 56 58 61 62 61 55 54 52 55 59 66 52 46 53 60 63 67 62 47 35 22 12 11 10 9 9 8 9 12 22 38 59 62 52 39 38 46 50 77 99 100 100

GFSCGP_500_rhum_126.txt.gz
RH
73 51 38 26 22 24 22 18 16 16 16 17 18 22 23 21 16 9 7 7 6 6 6 6 6 7 9 14 21 29 29 26 24 16 10 8 8 8 12 14 14 16 17 16
63 50 41 30 21 22 24 19 13 12 12 14 18 19 18 12 8 7 6 6 6 6 6 7 10 17 26 30 32 27 25 19 10 8 8 11 15 18 18 16 17 12 9 13
62 50 40 32 22 20 22 17 12 12 11 12 13 13 10 7 6 6 6 6 6 8 11 17 25 31 31 28 26 21 13 10 8 8 12 16 16 13 13 15 11 7 19 17
88 49 41 32 22 19 17 14 11 9 9 9 10 8 7 6 6 6 6 8 11 16 22 29 32 30 28 24 16 11 11 15 14 18 18 19 19 9 11 15 6 8 16 19
68 44 35 30 21 17 15 12 10 8 7 6 6 7 7 6 7 8 10 14 18 23 31 33 30 26 21 14 10 17 19 17 14 14 19 17 10 7 11 5 5 7 16 20
67 41 28 25 18 15 14 12 9 8 7 6 6 6 7 8 11 13 16 21 29 34 32 26 21 18 11 12 19 20 13 12 10 9 14 7 5 5 5 5 6 12 17 18
60 37 25 22 18 15 14 11 9 8 8 7 7 7 10 13 18 23 30 34 33 25 18 14 10 8 19 22 18 14 12 10 6 8 5 5 6 6 7 7 9 16 16 21
44 37 23 21 18 16 12 11 10 9 9 10 11 14 21 29 36 37 31 24 17 13 8 7 17 23 19 17 15 7 5 5 5 5 5 6 7 8 8 8 14 16 18 22
41 32 19 16 14 14 13 12 13 16 18 22 28 33 38 41 38 31 24 16 9 13 16 19 19 19 13 5 5 7 11 11 10 9 9 10 10 10 12 14 17 19 22 22
31 25 16 14 13 13 16 20 26 33 38 42 42 43 37 28 21 17 10 11 18 21 21 19 14 5 6 10 16 19 18 16 17 18 18 17 17 17 18 20 22 21 17 13
48 38 29 26 24 24 29 30 32 34 44 45 38 29 23 15 9 9 17 18 17 11 8 5 6 10 14 18 16 12 12 12 11 8 7 11 15 18 19 19 18 15 10 10
70 58 48 48 41 36 33 33 34 47 43 30 19 12 9 10 17 17 14 5 4 6 9 13 16 16 12 11 10 10 9 9 9 9 9 8 7 7 8 8 9 10 12 14
64 55 44 35 30 35 48 48 42 31 26 12 10 11 12 12 11 5 4 7 10 15 16 12 10 9 9 9 9 9 8 8 8 10 10 11 12 12 13 14 15 17 18 19
61 61 57 57 53 46 34 27 19 12 10 13 14 11 7 4 5 9 13 16 15 12 11 11 11 11 11 11 12 12 12 12 13 13 13 14 14 15 15 16 16 17 18 19
48 40 35 31 27 22 15 9 11 13 12 8 5 4 6 14 16 17 14 12 11 11 11 10 10 10 10 10 10 10 11 10 9 11 12 12 11 11 12 14 15 16 18 18
18 17 15 14 12 12 12 12 8 4 4 6 11 14 17 10 11 12 11 10 10 10 9 9 10 11 11 10 8 8 8 9 9 10 10 10 10 10 12 12 14 17 18 18
5 5 5 5 5 5 4 5 8 12 16 18 16 11 11 11 13 13 13 12 12 11 11 11 9 8 8 8 10 12 15 20 23 23 23 23 23 21 16 14 15 16 18 21
10 9 9 9 10 13 15 16 17 14 11 11 12 14 15 15 14 14 12 12 8 8 7 8 9 10 12 14 20 29 31 28 28 28 25 25 25 26 27 27 25 22 17 20
18 18 18 18 18 17 15 12 11 11 14 15 16 16 16 15 16 13 10 9 12 17 20 27 29 29 32 30 27 23 21 21 22 21 22 23 24 26 29 29 30 32 26 20
28 24 22 19 19 17 18 20 20 19 18 18 16 14 12 10 10 27 34 38 37 34 32 29 27 27 24 23 24 24 23 23 23 24 25 28 33 33 33 34 34 34 35 26
24 23 23 23 21 19 18 16 14 12 11 11 12 18 37 43 39 39 37 35 35 34 31 30 31 28 24 21 21 22 22 24 24 22 26 26 22 24 28 31 39 41 39 34
9 10 11 11 11 11 16 22 27 31 39 44 45 43 41 39 38 36 35 33 36 43 50 43 34 29 34 37 44 43 40 38 38 33 20 10 12 13 17 29 40 45 43 35
38 38 31 27 24 25 29 35 41 44 42 43 43 41 40 41 42 43 46 50 49 46 45 44 45 48 52 46 34 26 21 14 11 10 10 10 10 13 22 37 47 49 43 40
64 63 63 60 56 55 53 51 50 48 49 50 48 47 47 50 50 55 54 49 49 52 54 53 48 36 29 27 26 23 21 14 12 11 10 10 12 24 37 58 68 59 51 50
65 64 66 66 66 63 60 59 58 56 56 59 59 62 65 65 65 62 70 60 41 27 21 23 28 30 32 34 31 24 16 13 11 10 10 12 19 40 40 53 66 60 59 59
64 66 66 67 71 68 66 70 74 79 88 94 94 86 83 84 65 35 30 34 34 36 36 31 24 20 19 18 16 15 13 12 11 10 12 24 34 46 37 63 67 69 74 82

GFSCGP_500_rhum_132.txt.gz
RH
23 44 70 60 26 48 64 54 44 33 22 15 10 11 12 12 16 20 24 28 27 24 24 13 7 7 7 7 6 7 11 20 25 26 23 20 16 12 7 8 9 13 11 8
55 61 80 63 45 29 48 57 48 48 40 31 26 26 24 24 26 27 28 24 23 24 18 8 7 7 7 7 9 14 21 27 27 23 18 16 11 9 9 12 11 7 7 7
94 48 57 65 48 36 51 48 53 51 47 40 36 32 30 27 25 23 19 21 23 17 9 7 6 6 7 11 16 21 28 28 21 17 12 10 13 12 10 8 6 6 6 10
85 92 71 65 54 42 49 32 45 48 44 38 34 27 20 20 20 17 18 20 13 8 6 6 6 8 12 17 23 30 26 19 15 9 12 16 14 11 8 6 5 4 6 6
95 87 72 60 48 41 32 44 47 38 28 22 17 14 17 19 18 17 15 9 7 6 6 6 8 12 19 28 28 23 18 10 9 15 20 16 11 9 7 5 4 5 5 5
99 84 69 52 44 41 40 36 29 24 20 14 16 16 15 14 13 10 9 7 7 6 7 10 16 26 29 22 17 9 7 14 18 15 11 8 5 5 5 4 5 5 6 6
99 99 83 62 50 44 26 29 26 25 21 16 17 15 13 11 9 8 7 6 7 9 15 25 30 25 19 11 8 15 18 14 9 5 6 11 12 10 8 6 6 8 10 9
96 99 96 88 56 40 25 26 28 25 22 18 15 13 10 8 7 6 7 8 13 26 33 32 23 14 8 12 16 14 9 5 7 12 10 10 10 10 9 10 13 13 14 13
100 100 98 100 67 62 32 32 30 27 22 17 12 10 8 8 8 10 16 28 34 31 25 19 10 10 13 15 12 5 6 11 10 8 8 8 8 8 8 7 6 6 6 6
86 99 98 100 89 52 41 36 31 25 19 14 11 10 9 13 19 29 35 32 27 20 15 10 12 14 12 8 5 8 11 8 7 6 6 6 6 7 7 8 9 11 12 12
100 100 98 99 87 53 41 31 27 20 15 12 11 14 18 28 35 32 29 23 14 9 10 13 10 5 5 9 11 9 8 7 6 7 9 10 11 12 12 12 12 11 11 11
96 94 86 64 52 39 31 24 20 16 14 15 19 22 28 32 29 24 12 9 14 14 10 4 7 12 11 8 8 10 8 8 8 9 10 10 9 8 8 8 8 9 10 11
54 49 39 34 27 23 21 17 16 17 20 23 25 26 29 26 13 9 15 13 8 4 6 11 10 8 9 10 10 10 9 9 9 9 9 8 8 9 12 19 25 25 25 24
37 28 25 24 18 18 18 19 20 22 25 28 23 25 26 12 14 13 6 4 6 11 10 9 9 10 10 10 9 9 9 9 9 8 8 11 14 20 27 28 22 21 21 21
32 28 29 23 22 23 24 26 28 25 26 23 28 23 9 11 5 5 5 10 12 9 9 10 11 13 12 10 9 9 8 8 10 15 18 23 28 29 25 23 24 24 25 26
39 32 33 35 33 29 21 20 31 32 26 15 10 11 7 6 10 14 13 11 9 10 10 12 13 13 10 10 16 20 27 30 31 29 27 24 23 24 25 24 23 25 28 30
36 33 30 30 33 35 34 30 18 10 10 10 6 5 11 15 13 10 9 10 10 11 13 14 12 12 18 27 28 28 28 27 26 27 26 25 24 25 32 36 34 32 27 24
38 34 29 23 18 12 11 10 9 7 6 7 11 14 14 11 9 10 11 12 12 14 12 10 11 18 27 32 35 38 38 39 39 38 39 40 43 48 49 37 28 31 38 37
9 8 8 8 7 7 6 6 7 11 14 17 16 13 10 10 12 11 14 15 13 11 16 28 36 37 38 42 45 46 46 47 50 54 51 45 36 31 36 40 39 35 37 39
16 13 12 13 12 14 17 18 17 17 16 14 13 12 13 14 16 16 13 11 17 29 38 40 40 45 50 53 54 55 60 58 42 28 30 35 35 36 38 36 25 21 20 17
24 23 22 21 20 19 18 18 18 16 16 17 17 16 14 12 12 15 25 36 42 44 45 47 48 53 59 60 63 62 40 31 33 34 38 39 40 37 30 24 20 18 16 15
19 18 18 16 15 16 16 16 14 13 13 12 14 17 21 26 33 40 44 46 48 51 54 58 61 65 69 68 50 38 40 42 42 42 42 39 34 28 24 20 17 15 14 13
17 16 16 14 12 12 13 11 13 18 24 26 35 44 48 52 53 54 55 57 58 59 61 68 71 70 62 55 52 48 45 45 45 41 34 29 25 22 18 15 14 13 13 15
67 67 64 60 62 60 59 56 56 54 54 52 52 55 57 58 58 60 61 63 68 72 69 60 49 43 42 43 49 54 50 44 40 36 31 27 24 20 15 12 12 13 16 18
75 71 72 70 65 64 64 65 64 65 65 65 66 69 77 80 76 72 72 72 71 63 52 49 46 53 65 63 56 50 43 38 35 34 34 27 18 13 12 12 14 14 16 10
84 80 75 72 72 71 68 68 71 83 88 86 83 82 81 78 79 82 77 67 65 70 74 75 76 74 68 60 52 44 38 30 22 20 16 14 13 12 11 12 13 12 5 3